EW7422 Weather Reports


time (UTC)temp
C
wind
direction
speed
KPH
gust
KPH
rain 1hr
cm
rain 24hr
cm
rain mn
cm
humidity
%
barometer
mb
20260906084129 20 178 0.0 1.6 0.00 0.00 0.00 100 1016.3
20260906083619 20 178 0.0 1.6 0.00 0.00 0.00 100 1016.3
20260906083120 20 178 0.0 0.0 0.00 0.00 0.00 100 1016.2
20260906082617 20 178 0.0 0.0 0.00 0.00 0.00 100 1016.3
20260906082101 20 178 0.0 0.0 0.00 0.00 0.00 100 1016.4
20260906081601 20 178 0.0 0.0 0.00 0.00 0.00 100 1016.4
20260906081101 20 178 0.0 0.0 0.00 0.00 0.00 100 1016.3
20260906080601 20 178 0.0 1.6 0.00 0.00 0.00 100 1016.3
20260906075600 20 178 0.0 3.2 0.00 0.00 0.00 100 1016.2
20260906075101 20 175 0.0 1.6 0.00 0.00 0.00 100 1016.2
20260906074602 20 175 0.0 1.6 0.00 0.00 0.00 100 1016.2
20260906074101 20 175 0.0 3.2 0.00 0.00 0.00 100 1016.1
20260906073601 20 175 0.0 3.2 0.00 0.00 0.00 100 1016.0
20260906073101 20 175 0.0 3.2 0.00 0.00 0.00 100 1016.0
20260906072831 20 178 0.0 0.0 0.00 0.00 0.00 100 1016.0
20260906072101 20 178 0.0 0.0 0.00 0.00 0.00 100 1016.1
20260906071602 20 178 0.0 1.6 0.00 0.00 0.00 100 1016.1
20260906071100 20 179 0.0 1.6 0.00 0.00 0.00 100 1016.2
20260906070602 20 179 0.0 1.6 0.00 0.00 0.00 100 1016.3
20260906070101 20 179 0.0 1.6 0.00 0.00 0.00 100 1016.3
20260906065601 20 179 0.0 1.6 0.00 0.00 0.00 100 1016.2
20260906065102 20 178 0.0 0.0 0.00 0.00 0.00 100 1016.2
20260906064602 20 178 0.0 0.0 0.00 0.00 0.00 100 1016.2
20260906064101 20 178 0.0 1.6 0.00 0.00 0.00 100 1016.2
20260906063602 20 178 0.0 3.2 0.00 0.00 0.00 100 1016.3
20260906063101 20 178 0.0 3.2 0.00 0.00 0.00 100 1016.3
20260906062602 20 178 0.0 3.2 0.00 0.00 0.00 100 1016.3
20260906062102 20 179 0.0 3.2 0.00 0.00 0.00 100 1016.3
20260906061602 20 179 1.6 3.2 0.00 0.00 0.00 100 1016.3
20260906061101 20 179 0.0 3.2 0.00 0.00 0.00 100 1016.3
20260906060604 20 179 0.0 1.6 0.00 0.00 0.00 100 1016.4
20260906060600 20 179 0.0 1.6 0.00 0.00 0.00 100 1016.3
20260906055827 20 179 0.0 1.6 0.00 0.00 0.00 100 1016.5
20260906055055 20 179 0.0 1.6 0.00 0.00 0.00 100 1016.7
20260906054555 20 179 0.0 1.6 0.00 0.00 0.00 100 1016.8
20260906054049 20 179 0.0 3.2 0.00 0.00 0.00 100 1017.0
20260906053545 20 179 0.0 3.2 0.00 0.00 0.00 100 1017.0
20260906053029 20 179 0.0 1.6 0.00 0.00 0.00 100 1017.1
20260906052531 20 179 0.0 1.6 0.00 0.00 0.00 100 1017.0
20260906052029 20 179 0.0 1.6 0.00 0.00 0.00 100 1017.1
20260906051530 20 179 0.0 1.6 0.00 0.00 0.00 100 1017.2
20260906051300 20 178 0.0 0.0 0.00 0.00 0.00 100 1017.2
20260906050530 20 178 0.0 0.0 0.00 0.00 0.00 100 1017.3
20260906050030 20 178 0.0 0.0 0.00 0.00 0.00 100 1017.4
20260906045530 20 178 0.0 0.0 0.00 0.00 0.00 100 1017.4
20260906045029 20 178 0.0 3.2 0.00 0.00 0.00 100 1017.3
20260906044529 20 178 1.6 3.2 0.00 0.00 0.00 100 1017.2
20260906044028 20 178 1.6 4.8 0.00 0.00 0.00 100 1017.1
20260906043529 20 195 1.6 4.8 0.00 0.00 0.00 100 1017.2
20260906043518 20 230 0.0 3.2 0.00 0.00 0.00 100 1017.2
20260906042029 21 240 0.0 0.0 0.00 0.00 0.00 100 1017.1
20260906041529 21 240 0.0 0.0 0.00 0.00 0.00 100 1017.1
20260906041028 21 240 0.0 0.0 0.00 0.00 0.00 100 1017.1
20260906040529 21 240 0.0 0.0 0.00 0.00 0.00 100 1017.2
20260906040029 21 240 0.0 0.0 0.00 0.00 0.00 100 1017.4
20260906035529 21 240 0.0 0.0 0.00 0.00 0.00 100 1017.4
20260906035028 21 240 0.0 0.0 0.00 0.00 0.00 100 1017.3
20260906034529 21 240 0.0 0.0 0.00 0.00 0.00 100 1017.3
20260906034029 21 240 0.0 1.6 0.00 0.00 0.00 99 1017.4
20260906033534 21 240 0.0 1.6 0.00 0.00 0.00 100 1017.3
20260906033530 21 240 0.0 1.6 0.00 0.00 0.00 100 1017.3
20260906032529 21 240 0.0 1.6 0.00 0.00 0.00 100 1017.2
20260906032028 21 240 0.0 0.0 0.00 0.00 0.00 99 1017.3
20260906031529 21 240 0.0 4.8 0.00 0.00 0.00 99 1017.4
20260906031029 21 240 0.0 4.8 0.00 0.00 0.00 99 1017.3
20260906030529 21 240 0.0 4.8 0.00 0.00 0.00 99 1017.2
20260906030029 21 97 0.0 0.0 0.00 0.00 0.00 99 1017.2
20260906025759 21 97 0.0 0.0 0.00 0.00 0.00 99 1017.2
20260906025029 21 97 0.0 0.0 0.00 0.00 0.00 99 1017.2
20260906024800 21 97 0.0 0.0 0.00 0.00 0.00 99 1017.4
20260906024259 21 97 0.0 0.0 0.00 0.00 0.00 99 1017.4
20260906023529 21 97 0.0 0.0 0.00 0.00 0.00 99 1017.4
20260906023029 21 97 0.0 1.6 0.00 0.00 0.00 99 1017.3
20260906022528 21 97 0.0 3.2 0.00 0.00 0.00 99 1017.1
20260906022029 21 98 1.6 3.2 0.00 0.00 0.00 99 1017.0
20260906021529 21 97 0.0 3.2 0.00 0.00 0.00 99 1017.0
20260906021308 21 97 0.0 1.6 0.00 0.00 0.00 99 1017.0
20260906020529 21 97 0.0 1.6 0.00 0.00 0.00 99 1016.9
20260906020029 21 97 0.0 3.2 0.00 0.00 0.00 99 1017.0
20260906015529 21 97 0.0 3.2 0.00 0.00 0.00 99 1016.7
20260906015027 21 97 0.0 1.6 0.00 0.00 0.00 98 1016.7
20260906014519 21 97 0.0 0.0 0.00 0.00 0.00 98 1016.7
20260906014232 21 97 0.0 1.6 0.00 0.00 0.00 98 1016.7
20260906013504 21 97 0.0 1.6 0.00 0.00 0.00 98 1016.7
20260906013002 21 97 0.0 1.6 0.00 0.00 0.00 98 1016.7
20260906012504 21 97 0.0 1.6 0.00 0.00 0.00 98 1016.8
20260906012000 21 97 0.0 1.6 0.00 0.00 0.00 98 1016.7
20260906011504 21 97 0.0 1.6 0.00 0.00 0.00 98 1016.8
20260906011001 21 97 1.6 3.2 0.00 0.00 0.00 98 1016.7
20260906010504 21 97 0.0 3.2 0.00 0.00 0.00 98 1016.4
20260906010001 21 97 0.0 0.0 0.00 0.00 0.00 97 1016.3
20260906005504 21 97 0.0 0.0 0.00 0.00 0.00 97 1016.3
20260906005001 21 97 0.0 1.6 0.00 0.00 0.00 97 1016.3
20260906004503 21 97 0.0 1.6 0.00 0.00 0.00 96 1016.3
20260906004000 22 97 0.0 1.6 0.00 0.00 0.00 96 1016.3
20260906003736 22 97 0.0 1.6 0.00 0.00 0.00 95 1016.4
20260906003002 22 97 0.0 1.6 0.00 0.00 0.00 95 1016.3
20260906002503 22 97 0.0 0.0 0.00 0.00 0.00 95 1016.2
20260906002002 22 97 0.0 0.0 0.00 0.00 0.00 95 1016.1
20260906001504 22 97 0.0 1.6 0.00 0.00 0.00 95 1016.1
20260906001001 22 97 0.0 3.2 0.00 0.00 0.00 94 1016.3
20260906000503 22 97 1.6 3.2 0.00 0.00 0.00 93 1016.3
20260906000001 23 97 0.0 3.2 0.00 0.00 0.00 92 1016.1
20260905235504 23 97 0.0 1.6 0.00 0.00 0.00 92 1016.2
20260905235232 23 97 1.6 6.4 0.00 0.00 0.00 92 1016.1
20260905234503 23 97 3.2 6.4 0.00 0.00 0.00 91 1016.0
20260905234002 23 103 3.2 9.7 0.00 0.00 0.00 90 1016.2
20260905233504 23 101 3.2 9.7 0.00 0.00 0.00 89 1016.1
20260905233001 23 90 3.2 9.7 0.00 0.00 0.00 89 1016.1
20260905232508 24 138 3.2 8.0 0.00 0.00 0.00 89 1016.0
20260905232504 24 102 3.2 9.7 0.00 0.00 0.00 88 1016.0
20260905231504 24 161 3.2 8.0 0.00 0.00 0.00 89 1015.8
20260905231232 25 145 1.6 6.4 0.00 0.00 0.00 88 1015.7
20260905230504 25 157 1.6 4.8 0.00 0.00 0.00 89 1015.7
20260905230001 24 155 1.6 4.8 0.00 0.00 0.00 90 1015.7
20260905225504 24 157 1.6 4.8 0.00 0.00 0.00 89 1015.5
20260905225231 24 198 1.6 3.2 0.00 0.00 0.00 89 1015.8
20260905224508 24 157 0.0 3.2 0.00 0.00 0.00 89 1015.6
20260905224503 24 198 1.6 3.2 0.00 0.00 0.00 89 1015.7
20260905223504 24 157 1.6 3.2 0.00 0.00 0.00 89 1015.6
20260905223232 24 157 1.6 3.2 0.00 0.00 0.00 89 1015.6
20260905222501 24 96 1.6 4.8 0.00 0.00 0.00 89 1015.6
20260905222002 25 88 1.6 4.8 0.00 0.00 0.00 88 1015.7
20260905221501 25 145 1.6 3.2 0.00 0.00 0.00 87 1015.8
20260905221231 25 141 1.6 8.0 0.00 0.00 0.00 87 1015.8
20260905220501 25 140 3.2 8.0 0.00 0.00 0.00 86 1015.8
20260905220000 25 107 1.6 3.2 0.00 0.00 0.00 84 1015.8
20260905215500 25 90 1.6 3.2 0.00 0.00 0.00 84 1015.7
20260905215239 25 90 1.6 4.8 0.00 0.00 0.00 83 1015.7
20260905214501 25 89 3.2 6.4 0.00 0.00 0.00 84 1015.9
20260905213501 25 118 3.2 6.4 0.00 0.00 0.00 83 1015.8
20260905213004 25 120 1.6 4.8 0.00 0.00 0.00 84 1015.9
20260905212500 25 130 0.0 3.2 0.00 0.00 0.00 85 1016.0
20260905212004 25 130 1.6 4.8 0.00 0.00 0.00 86 1016.2
20260905211500 25 127 3.2 9.7 0.00 0.00 0.00 85 1016.3
20260905211003 25 106 3.2 9.7 0.00 0.00 0.00 84 1016.3
20260905210501 25 105 1.6 6.4 0.00 0.00 0.00 86 1016.2
20260905210004 24 119 1.6 3.2 0.00 0.00 0.00 87 1016.3
20260905205734 24 116 1.6 9.7 0.00 0.00 0.00 86 1016.4
20260905205239 24 116 1.6 9.7 0.00 0.00 0.00 85 1016.4
20260905204502 24 103 0.0 4.8 0.00 0.00 0.00 85 1016.5
20260905204012 24 100 0.0 3.2 0.00 0.00 0.00 87 1016.5
20260905203501 24 100 1.6 3.2 0.00 0.00 0.00 89 1016.5
20260905203004 25 100 1.6 3.2 0.00 0.03 0.00 87 1016.5
20260905202507 25 100 3.2 11.3 0.00 0.10 0.00 83 1016.7
20260905202500 25 100 1.6 11.3 0.00 0.05 0.00 85 1016.5
20260905201456 25 263 4.8 11.3 0.00 0.25 0.00 82 1016.8
20260905200956 25 162 3.2 8.0 0.00 0.48 0.00 82 1016.6
20260905200456 25 250 1.6 6.4 0.00 0.86 0.00 83 1016.5
20260905195952 25 250 1.6 6.4 0.00 1.42 0.00 82 1016.4
20260905195450 26 255 3.2 12.9 0.00 1.83 0.00 82 1016.4
20260905194947 26 257 4.8 14.5 0.00 2.03 0.00 79 1016.3
20260905194440 26 215 4.8 14.5 0.00 2.03 0.00 77 1016.4
20260905194211 27 88 4.8 11.3 0.00 2.03 0.00 77 1016.4
20260905193707 27 151 3.2 14.5 0.00 2.03 0.00 75 1016.5
20260905192935 28 93 6.4 14.5 0.00 2.03 0.00 74 1016.3
20260905192704 28 94 6.4 12.9 0.00 2.03 0.00 73 1016.1
20260905191934 28 78 4.8 11.3 0.00 2.03 0.00 73 1016.1
20260905191432 30 107 6.4 16.1 0.00 2.03 0.00 72 1016.2
20260905190940 30 172 6.4 14.5 0.00 2.03 0.00 68 1016.3
20260905190932 30 138 8.0 16.1 0.00 2.03 0.00 66 1016.2
20260905190659 29 137 8.0 16.1 0.00 2.03 0.00 67 1016.3
20260905185429 29 84 8.0 16.1 0.00 2.03 0.00 67 1016.2
20260905184929 28 122 8.0 14.5 0.00 2.03 0.00 69 1016.2
20260905184429 28 105 4.8 12.9 0.00 2.03 0.00 70 1016.2
20260905183928 27 142 3.2 12.9 0.00 2.03 0.00 71 1016.2
20260905183701 27 80 1.6 4.8 0.00 2.03 0.00 75 1016.3
20260905182928 27 190 1.6 6.4 0.00 2.03 0.00 75 1016.2
20260905182430 28 164 1.6 6.4 0.00 2.03 0.00 72 1016.1
20260905181929 28 21 1.6 4.8 0.00 2.03 0.00 71 1015.9
20260905181429 30 21 1.6 6.4 0.00 2.03 0.00 70 1016.0
20260905180929 31 42 1.6 6.4 0.00 2.03 0.00 71 1016.1
20260905180429 32 34 3.2 4.8 0.00 2.03 0.00 65 1016.2
20260905175933 31 259 3.2 11.3 0.00 2.03 0.00 64 1016.7
20260905175929 31 189 3.2 11.3 0.00 2.03 0.00 63 1016.5
20260905174929 31 287 1.6 11.3 0.00 2.03 0.00 66 1016.7
20260905174430 31 213 1.6 4.8 0.00 2.03 0.00 70 1016.8
20260905173930 31 330 1.6 6.4 0.00 2.03 0.00 73 1017.0
20260905173429 31 149 1.6 6.4 0.00 2.03 0.00 72 1017.0
20260905173200 31 348 1.6 6.4 0.00 2.03 0.00 73 1017.0
20260905172429 30 268 3.2 11.3 0.00 2.03 0.00 75 1017.2
20260905172200 30 252 4.8 11.3 0.00 2.03 0.00 73 1017.1
20260905171439 30 226 3.2 9.7 0.00 2.03 0.00 74 1017.1
20260905170936 30 281 4.8 11.3 0.00 2.03 0.00 73 1017.1
20260905170433 30 182 3.2 11.3 0.00 2.03 0.00 73 1017.2
20260905165931 30 248 1.6 6.4 0.00 2.03 0.00 71 1017.2
20260905165429 30 270 1.6 6.4 0.00 2.03 0.00 72 1017.2
20260905164929 30 209 1.6 6.4 0.00 2.03 0.00 75 1017.3
20260905164429 29 262 1.6 6.4 0.00 2.03 0.00 78 1017.5
20260905163929 29 265 3.2 6.4 0.00 2.03 0.00 79 1017.7
20260905163428 28 240 3.2 6.4 0.00 2.03 0.00 78 1017.9
20260905162928 28 215 3.2 6.4 0.00 2.03 0.00 81 1018.0
20260905162429 28 195 3.2 6.4 0.00 2.03 0.00 82 1018.1
20260905161929 28 196 3.2 4.8 0.00 2.03 0.00 84 1018.1
20260905161700 27 260 3.2 6.4 0.00 2.03 0.00 85 1018.1
20260905160930 27 237 3.2 6.4 0.00 2.03 0.00 84 1018.1
20260905160429 27 236 3.2 6.4 0.00 2.03 0.00 85 1018.1
20260905160159 27 240 1.6 6.4 0.00 2.03 0.00 86 1018.1
20260905155430 26 269 1.6 6.4 0.00 2.03 0.00 89 1018.2
20260905154929 26 223 3.2 6.4 0.00 2.03 0.00 87 1018.2
20260905154431 26 215 1.6 6.4 0.00 2.03 0.00 90 1018.2
20260905153929 25 254 1.6 6.4 0.00 2.03 0.00 89 1018.4
20260905153431 25 204 1.6 4.8 0.00 2.03 0.00 90 1018.4
20260905153200 25 190 1.6 6.4 0.00 2.03 0.00 92 1018.4
20260905152430 24 182 1.6 6.4 0.00 2.03 0.00 95 1018.5
20260905151929 24 219 1.6 4.8 0.00 2.03 0.00 95 1018.7
20260905151430 23 226 1.6 4.8 0.00 2.03 0.00 97 1018.6
20260905151159 23 242 1.6 3.2 0.00 2.03 0.00 99 1018.7
20260905150700 22 233 0.0 3.2 0.00 2.03 0.00 100 1018.8
20260905145929 22 230 0.0 3.2 0.00 2.03 0.00 100 1019.0
20260905145430 22 230 1.6 3.2 0.00 2.03 0.00 100 1019.0
20260905144929 22 230 0.0 3.2 0.00 2.03 0.00 100 1019.1
20260905144702 21 230 0.0 0.0 0.00 2.03 0.00 100 1019.0
20260905143930 21 213 0.0 1.6 0.00 2.03 0.00 100 1019.1
20260905143428 21 204 1.6 3.2 0.00 2.03 0.00 100 1019.2
20260905142929 21 201 1.6 3.2 0.00 2.03 0.00 100 1019.2
20260905142428 21 194 1.6 3.2 0.00 2.03 0.00 100 1019.1
20260905141929 21 189 1.6 3.2 0.00 2.03 0.00 100 1019.1
20260905141429 21 179 1.6 3.2 0.00 2.03 0.00 100 1019.0
20260905140929 21 209 1.6 3.2 0.00 2.03 0.00 100 1019.2
20260905140429 21 209 1.6 3.2 0.00 2.03 0.00 100 1019.3
20260905135929 21 209 0.0 3.2 0.00 2.03 0.00 100 1019.4
20260905135659 21 209 0.0 0.0 0.00 2.03 0.00 100 1019.4
20260905134901 21 209 0.0 0.0 0.00 2.03 0.00 100 1019.4
20260905134403 21 207 0.0 0.0 0.00 2.03 0.00 100 1019.5
20260905133901 21 207 0.0 0.0 0.00 2.03 0.00 100 1019.6
20260905133402 20 207 0.0 1.6 0.00 2.03 0.00 100 1019.6
20260905132901 20 207 0.0 3.2 0.00 2.03 0.00 100 1019.5
20260905132636 20 207 1.6 4.8 0.00 2.03 0.00 100 942.9
20260905132604 20 207 1.6 3.2 0.00 2.03 0.00 100 1019.5
20260905131401 20 207 1.6 4.8 0.00 2.03 0.00 100 943.0
20260905131133 20 205 0.0 4.8 0.00 2.03 0.00 100 943.0
20260905130404 20 205 0.0 4.8 0.00 2.03 0.00 100 1019.6
20260905125901 20 196 0.0 3.2 0.00 2.03 0.00 100 1019.7
20260905125400 20 196 0.0 3.2 0.00 2.03 0.00 100 1019.6
20260905124900 20 196 1.6 3.2 0.00 2.03 0.00 100 1019.5
20260905124401 20 196 1.6 3.2 0.00 2.03 0.00 100 1019.4
20260905124132 20 196 0.0 3.2 0.00 2.03 0.00 100 1019.4
20260905123401 20 196 0.0 1.6 0.00 2.03 0.00 100 1019.3
20260905122901 20 196 0.0 1.6 0.00 2.03 0.00 100 1019.3
20260905122401 20 196 0.0 3.2 0.00 2.03 0.00 100 1019.3
20260905122132 20 196 0.0 3.2 0.00 2.03 0.00 100 1019.3
20260905121401 20 196 0.0 3.2 0.00 2.03 0.00 100 1019.3
20260905120901 20 195 0.0 1.6 0.00 2.03 0.00 100 1019.3
20260905120401 20 195 0.0 3.2 0.00 2.03 0.00 100 1019.3
20260905115903 20 195 1.6 3.2 0.00 2.03 0.00 100 1019.3
20260905115401 20 195 0.0 3.2 0.00 2.03 0.00 100 1019.2
20260905115134 20 195 0.0 3.2 0.00 2.03 0.00 100 1019.1
20260905114401 20 194 0.0 3.2 0.00 2.03 0.00 100 1019.0
20260905113902 20 194 0.0 3.2 0.00 2.03 0.00 100 1019.0
20260905113400 20 194 0.0 3.2 0.00 2.03 0.00 100 1018.9
20260905112903 20 194 0.0 0.0 0.00 2.03 0.00 100 1018.8
20260905112402 20 194 0.0 0.0 0.00 2.03 0.00 100 1018.8
20260905111902 20 194 0.0 0.0 0.00 2.03 0.00 100 1018.7
20260905111401 20 194 0.0 0.0 0.00 2.03 0.00 100 1018.7
20260905111134 20 194 0.0 0.0 0.00 2.03 0.00 100 1018.5
20260905110400 20 194 0.0 0.0 0.00 2.03 0.00 100 1018.5
20260905105900 20 194 0.0 0.0 0.00 2.06 0.00 100 1018.5
20260905105401 20 194 0.0 0.0 0.00 2.06 0.00 100 1018.5
20260905105133 20 194 0.0 0.0 0.00 2.06 0.00 100 1018.4
20260905104401 20 194 0.0 0.0 0.00 2.06 0.00 100 1018.3
20260905103901 20 194 0.0 1.6 0.00 2.06 0.00 100 1018.2
20260905103400 20 194 0.0 3.2 0.00 2.06 0.00 100 1018.2
20260905102901 20 194 0.0 3.2 0.00 2.06 0.00 100 1018.2
20260905102401 20 146 0.0 3.2 0.00 2.06 0.00 100 1018.2
20260905101901 20 145 0.0 1.6 0.00 2.06 0.00 100 1018.2
20260905101401 20 145 0.0 1.6 0.00 2.06 0.00 100 1018.2
20260905100901 20 145 0.0 1.6 0.00 2.06 0.00 100 1018.1
20260905100634 20 145 0.0 0.0 0.00 2.06 0.00 100 1018.0
20260905095901 20 145 0.0 0.0 0.00 2.06 0.00 100 1018.0
20260905095401 20 145 0.0 0.0 0.00 2.06 0.00 100 1018.0
20260905094901 20 145 0.0 0.0 0.00 2.06 0.00 100 1018.0
20260905094402 20 145 0.0 0.0 0.00 2.06 0.00 100 1018.1
20260905094138 20 145 0.0 0.0 0.00 2.06 0.00 100 1018.1
20260905093402 20 145 0.0 1.6 0.00 2.06 0.00 100 1018.1
20260905092900 20 145 0.0 1.6 0.00 2.06 0.00 100 1018.1
20260905092401 20 145 0.0 1.6 0.00 2.06 0.00 100 1018.0
20260905091901 20 145 0.0 1.6 0.00 2.06 0.00 100 1018.0
20260905091402 20 144 0.0 1.6 0.00 2.06 0.00 100 1018.0
20260905090901 20 144 0.0 1.6 0.00 2.06 0.00 100 1018.1
20260905090402 20 144 0.0 1.6 0.00 2.06 0.00 100 1018.0
20260905090131 20 144 0.0 1.6 0.00 2.06 0.00 100 1018.0
20260905085406 20 144 0.0 1.6 0.00 2.06 0.00 100 1018.2
20260905085401 20 144 0.0 0.0 0.00 2.06 0.00 100 1018.1
20260905084402 20 144 0.0 3.2 0.00 2.06 0.00 100 1018.2